Location: Cambroso
(45.2833°N, 12.0850°E)
Time: 10:05:23
(UTC+00:00)

H-2A R/B - Pass Details

Date: 21 January 2021
Orbit: 734 x 836 km, 98.2° (Epoch: 01 March)

Event Time Altitude Azimuth Distance (km) Brightness Sun altitude
Rises 17:38:11 0° 156° (SSE) 3,168 5.1 -16.5°
Reaches altitude 10° 17:40:26 10° 154° (SSE) 2,259 4.3 -16.9°
Maximum altitude 17:45:21 66° 73° (ENE) 831 1.9 -17.7°
Drops below altitude 10° 17:50:26 10° 352° (N) 2,332 4.5 -18.6°
Sets 17:52:48 0° 350° (N) 3,280 5.3 -19.0°
